Tracking 30703 objects as of 14-Jun-2025
HD Live streaming from Space Station
objects crossing your sky now

ONEWEB-0660

Track ONEWEB-0660 now!
10-day predictions
ONEWEB-0660 is classified as:


NORAD ID: 55820
Int'l Code: 2023-029AA
Perigee: 1,211.7 km
Apogee: 1,214.2 km
Inclination: 87.9 °
Period: 109.5 minutes
Semi major axis: 7583 km
RCS: Unknown
Launch date: March 9, 2023
Source: United Kingdom (UK)
Launch site: AIR FORCE EASTERN TEST RANGE (AFETR)
Your satellite tracking list
Your tracking list is empty




NASA's NSSDC Master Catalog

Two Line Element Set (TLE):
1 55820U 23029AA  25165.02103987 -.00000011  00000-0 -65324-4 0  9993
2 55820  87.9036   2.9289 0001650  98.2704 261.8613 13.14500660111744
Source of the keplerian elements: AFSPC